Location: Bullenkuhlen
(53.7689°N, 9.7495°E)
Time: 03:26:35
(UTC+00:00)

Cosmos 1833 Rocket - Pass Details

Date: 09 April 2020
Orbit: 834 x 838 km, 71.0° (Epoch: 26 May)

Event Time Altitude Azimuth Distance (km) Brightness Sun altitude
Exits shadow 20:39:22 36° 127° (SE) 1,311 3.2 -19.3°
Maximum altitude 20:40:07 37° 109° (ESE) 1,276 3.2 -19.4°
Drops below altitude 10° 20:45:15 10° 43° (NE) 2,462 5.2 -19.9°
Sets 20:47:51 0° 36° (NE) 3,400 6.0 -20.2°
